Time,TemperatureF,DewpointF,PressureIn,WindDirection,WindDirectionDegrees,WindSpeedMPH,WindSpeedGustMPH,Humidity,HourlyPrecipIn,Conditions,Clouds,dailyrainin,SoftwareType,DateUTC
2013-07-11 00:01:00,70.3,37.4,29.57,East,79,1.0,4.0,30,0.00,,CLR,0.00,VWS V14.01,2013-07-11 06:01:00,
2013-07-11 00:06:00,70.4,37.5,29.58,ENE,57,0.0,1.0,30,0.00,,CLR,0.00,VWS V14.01,2013-07-11 06:06:00,
2013-07-11 00:11:00,70.3,36.6,29.58,ENE,57,0.0,0.0,29,0.00,,CLR,0.00,VWS V14.01,2013-07-11 06:11:00,
2013-07-11 00:16:00,69.9,37.1,29.58,ENE,57,0.0,0.0,30,0.00,,CLR,0.00,VWS V14.01,2013-07-11 06:16:00,
2013-07-11 00:21:00,69.6,36.8,29.55,ENE,57,0.0,1.0,30,0.00,,CLR,0.00,VWS V14.01,2013-07-11 06:21:00,
2013-07-11 00:26:00,69.3,37.4,29.55,ENE,57,0.0,0.0,31,0.00,,CLR,0.00,VWS V14.01,2013-07-11 06:26:00,
2013-07-11 00:31:00,68.9,38.6,29.55,ENE,57,0.0,2.0,33,0.00,,CLR,0.00,VWS V14.01,2013-07-11 06:31:00,
2013-07-11 00:36:00,68.6,37.6,29.56,ENE,57,0.0,0.0,32,0.00,,CLR,0.00,VWS V14.01,2013-07-11 06:36:00,
2013-07-11 00:42:00,68.3,38.1,29.56,ENE,57,0.0,0.0,33,0.00,,CLR,0.00,VWS V14.01,2013-07-11 06:42:00,
2013-07-11 00:47:00,67.9,37.8,29.56,ENE,57,0.0,0.0,33,0.00,,CLR,0.00,VWS V14.01,2013-07-11 06:47:00,
2013-07-11 00:52:00,67.6,38.3,29.57,ENE,57,0.0,0.0,34,0.00,,CLR,0.00,VWS V14.01,2013-07-11 06:52:00,
2013-07-11 00:57:00,67.3,38.0,29.57,ENE,57,0.0,0.0,34,0.00,,CLR,0.00,VWS V14.01,2013-07-11 06:57:00,
2013-07-11 01:02:00,67.4,38.1,29.57,ENE,57,0.0,0.0,34,0.00,,CLR,0.00,VWS V14.01,2013-07-11 07:02:00,
2013-07-11 01:07:00,67.4,38.1,29.56,ENE,57,0.0,0.0,34,0.00,,CLR,0.00,VWS V14.01,2013-07-11 07:07:00,
2013-07-11 01:12:00,67.4,37.3,29.56,ENE,57,0.0,0.0,33,0.00,,CLR,0.00,VWS V14.01,2013-07-11 07:12:00,
2013-07-11 01:17:00,67.4,37.3,29.56,ENE,57,0.0,1.0,33,0.00,,CLR,0.00,VWS V14.01,2013-07-11 07:17:00,
2013-07-11 01:22:00,67.4,37.3,29.53,ENE,59,0.0,0.0,33,0.00,,CLR,0.00,VWS V14.01,2013-07-11 07:22:00,
2013-07-11 01:27:00,67.6,36.7,29.53,ENE,59,0.0,0.0,32,0.00,,CLR,0.00,VWS V14.01,2013-07-11 07:27:00,
2013-07-11 01:32:00,67.8,38.4,29.53,ENE,59,0.0,0.0,34,0.00,,CLR,0.00,VWS V14.01,2013-07-11 07:32:00,
2013-07-11 01:37:00,67.8,37.7,29.54,ENE,59,0.0,0.0,33,0.00,,CLR,0.00,VWS V14.01,2013-07-11 07:37:00,
2013-07-11 01:42:00,67.9,37.8,29.54,ENE,59,0.0,0.0,33,0.00,,CLR,0.00,VWS V14.01,2013-07-11 07:42:00,
2013-07-11 01:47:00,68.1,38.7,29.52,ENE,59,0.0,0.0,34,0.00,,CLR,0.00,VWS V14.01,2013-07-11 07:47:00,
2013-07-11 01:52:00,67.8,39.2,29.52,ENE,59,0.0,0.0,35,0.00,,CLR,0.00,VWS V14.01,2013-07-11 07:52:00,
2013-07-11 01:57:00,67.8,37.7,29.52,East,79,0.0,1.0,33,0.00,,CLR,0.00,VWS V14.01,2013-07-11 07:57:00,
2013-07-11 02:02:00,67.8,36.9,29.52,East,79,0.0,0.0,32,0.00,,CLR,0.00,VWS V14.01,2013-07-11 08:02:00,
2013-07-11 02:07:00,67.3,37.2,29.52,East,79,0.0,0.0,33,0.00,,CLR,0.00,VWS V14.01,2013-07-11 08:07:00,
2013-07-11 02:12:00,66.9,36.9,29.52,East,79,0.0,0.0,33,0.00,,CLR,0.00,VWS V14.01,2013-07-11 08:12:00,
2013-07-11 02:18:00,66.6,38.1,29.54,East,79,0.0,0.0,35,0.00,,CLR,0.00,VWS V14.01,2013-07-11 08:18:00,
2013-07-11 02:23:00,66.3,37.8,29.54,East,79,0.0,0.0,35,0.00,,CLR,0.00,VWS V14.01,2013-07-11 08:23:00,
2013-07-11 02:28:00,65.8,36.7,29.54,East,79,0.0,0.0,34,0.00,,CLR,0.00,VWS V14.01,2013-07-11 08:28:00,
2013-07-11 02:33:00,65.6,36.5,29.54,East,79,0.0,0.0,34,0.00,,CLR,0.00,VWS V14.01,2013-07-11 08:33:00,
2013-07-11 02:38:00,65.6,37.2,29.54,East,79,0.0,0.0,35,0.00,,CLR,0.00,VWS V14.01,2013-07-11 08:38:00,
2013-07-11 02:43:00,65.2,37.6,29.54,East,79,0.0,0.0,36,0.00,,CLR,0.00,VWS V14.01,2013-07-11 08:43:00,
2013-07-11 02:48:00,64.5,37.7,29.55,East,79,0.0,0.0,37,0.00,,CLR,0.00,VWS V14.01,2013-07-11 08:48:00,
2013-07-11 02:53:00,64.2,37.4,29.55,East,79,0.0,0.0,37,0.00,,CLR,0.00,VWS V14.01,2013-07-11 08:53:00,
2013-07-11 02:58:00,64.0,37.2,29.55,East,79,0.0,0.0,37,0.00,,CLR,0.00,VWS V14.01,2013-07-11 08:58:00,
2013-07-11 03:03:00,64.0,37.2,29.56,East,79,0.0,0.0,37,0.00,,CLR,0.00,VWS V14.01,2013-07-11 09:03:00,
2013-07-11 03:08:00,63.9,37.1,29.56,East,79,0.0,1.0,37,0.00,,CLR,0.00,VWS V14.01,2013-07-11 09:08:00,
2013-07-11 03:13:00,63.9,37.1,29.56,East,79,0.0,0.0,37,0.00,,CLR,0.00,VWS V14.01,2013-07-11 09:13:00,
2013-07-11 03:18:00,63.9,36.5,29.54,East,79,0.0,0.0,36,0.00,,CLR,0.00,VWS V14.01,2013-07-11 09:18:00,
2013-07-11 03:23:00,63.9,37.1,29.54,East,79,0.0,0.0,37,0.00,,CLR,0.00,VWS V14.01,2013-07-11 09:23:00,
2013-07-11 03:28:00,63.7,37.6,29.54,East,79,0.0,0.0,38,0.00,,CLR,0.00,VWS V14.01,2013-07-11 09:28:00,
2013-07-11 03:33:00,63.4,37.4,29.55,East,79,0.0,0.0,38,0.00,,CLR,0.00,VWS V14.01,2013-07-11 09:33:00,
2013-07-11 03:39:00,63.2,37.2,29.55,East,79,0.0,0.0,38,0.00,,CLR,0.00,VWS V14.01,2013-07-11 09:39:00,
2013-07-11 03:44:00,63.4,36.7,29.55,East,79,0.0,0.0,37,0.00,,CLR,0.00,VWS V14.01,2013-07-11 09:44:00,
2013-07-11 03:49:00,63.7,37.0,29.55,East,79,0.0,0.0,37,0.00,,CLR,0.00,VWS V14.01,2013-07-11 09:49:00,
2013-07-11 03:54:00,64.0,37.2,29.55,East,79,0.0,1.0,37,0.00,,CLR,0.00,VWS V14.01,2013-07-11 09:54:00,
2013-07-11 03:59:00,64.2,36.7,29.55,East,79,0.0,0.0,36,0.00,,CLR,0.00,VWS V14.01,2013-07-11 09:59:00,
2013-07-11 04:04:00,64.5,37.0,29.54,East,79,0.0,0.0,36,0.00,,CLR,0.00,VWS V14.01,2013-07-11 10:04:00,
2013-07-11 04:09:00,64.7,37.2,29.54,East,79,0.0,0.0,36,0.00,,CLR,0.00,VWS V14.01,2013-07-11 10:09:00,
2013-07-11 04:14:00,64.7,37.2,29.54,East,79,0.0,0.0,36,0.00,,CLR,0.00,VWS V14.01,2013-07-11 10:14:00,
2013-07-11 04:19:00,64.8,37.2,29.54,East,79,0.0,0.0,36,0.00,,CLR,0.00,VWS V14.01,2013-07-11 10:19:00,
2013-07-11 04:24:00,65.0,37.4,29.54,East,79,0.0,0.0,36,0.00,,CLR,0.00,VWS V14.01,2013-07-11 10:24:00,
2013-07-11 04:29:00,65.2,36.9,29.54,East,79,0.0,0.0,35,0.00,,CLR,0.00,VWS V14.01,2013-07-11 10:29:00,
2013-07-11 04:34:00,65.2,37.6,29.54,East,79,0.0,0.0,36,0.00,,CLR,0.00,VWS V14.01,2013-07-11 10:34:00,
2013-07-11 04:39:00,65.2,38.3,29.54,East,79,0.0,0.0,37,0.00,,CLR,0.00,VWS V14.01,2013-07-11 10:39:00,
2013-07-11 04:44:00,65.0,38.1,29.54,East,79,0.0,0.0,37,0.00,,CLR,0.00,VWS V14.01,2013-07-11 10:44:00,
2013-07-11 04:49:00,64.8,37.9,29.54,East,79,0.0,0.0,37,0.00,,CLR,0.00,VWS V14.01,2013-07-11 10:49:00,
2013-07-11 04:54:00,64.7,37.8,29.54,East,79,0.0,0.0,37,0.00,,CLR,0.00,VWS V14.01,2013-07-11 10:54:00,
2013-07-11 05:00:00,64.7,37.8,29.54,East,79,0.0,0.0,37,0.00,,CLR,0.00,VWS V14.01,2013-07-11 11:00:00,
2013-07-11 05:05:00,64.8,38.6,29.54,East,79,0.0,0.0,38,0.00,,CLR,0.00,VWS V14.01,2013-07-11 11:05:00,
2013-07-11 05:10:00,64.8,38.6,29.54,East,79,0.0,0.0,38,0.00,,CLR,0.00,VWS V14.01,2013-07-11 11:10:00,
2013-07-11 05:15:00,64.8,38.6,29.54,East,79,0.0,0.0,38,0.00,,CLR,0.00,VWS V14.01,2013-07-11 11:15:00,
2013-07-11 05:20:00,65.0,38.8,29.56,East,79,0.0,0.0,38,0.00,,CLR,0.00,VWS V14.01,2013-07-11 11:20:00,
2013-07-11 05:25:00,65.0,38.8,29.56,East,79,0.0,0.0,38,0.00,,CLR,0.00,VWS V14.01,2013-07-11 11:25:00,
2013-07-11 05:30:00,65.0,38.8,29.56,East,79,0.0,0.0,38,0.00,,CLR,0.00,VWS V14.01,2013-07-11 11:30:00,
2013-07-11 05:35:00,64.8,38.6,29.56,East,79,0.0,0.0,38,0.00,,CLR,0.00,VWS V14.01,2013-07-11 11:35:00,
2013-07-11 05:40:00,64.7,39.2,29.56,East,79,0.0,0.0,39,0.00,,CLR,0.00,VWS V14.01,2013-07-11 11:40:00,
2013-07-11 05:45:00,64.3,38.8,29.56,East,79,0.0,0.0,39,0.00,,CLR,0.00,VWS V14.01,2013-07-11 11:45:00,
2013-07-11 05:50:00,64.0,38.6,29.57,East,79,0.0,0.0,39,0.00,,CLR,0.00,VWS V14.01,2013-07-11 11:50:00,
2013-07-11 05:55:00,63.9,39.8,29.57,East,79,0.0,0.0,41,0.00,,CLR,0.00,VWS V14.01,2013-07-11 11:55:00,
2013-07-11 06:00:00,63.9,39.1,29.57,East,79,0.0,0.0,40,0.00,,CLR,0.00,VWS V14.01,2013-07-11 12:00:00,
2013-07-11 06:05:00,63.9,39.8,29.58,East,79,0.0,0.0,41,0.00,,CLR,0.00,VWS V14.01,2013-07-11 12:05:00,
2013-07-11 06:10:00,63.9,39.1,29.58,ENE,78,0.0,0.0,40,0.00,,CLR,0.00,VWS V14.01,2013-07-11 12:10:00,
2013-07-11 06:15:00,64.2,40.0,29.58,ENE,78,0.0,0.0,41,0.00,,CLR,0.00,VWS V14.01,2013-07-11 12:15:00,
2013-07-11 06:20:00,64.5,40.3,29.59,ENE,78,0.0,0.0,41,0.00,,CLR,0.00,VWS V14.01,2013-07-11 12:20:00,
2013-07-11 06:26:00,64.8,39.9,29.59,North,5,0.0,1.0,40,0.00,,CLR,0.00,VWS V14.01,2013-07-11 12:26:00,
2013-07-11 06:31:00,65.3,39.7,29.59,NW,316,0.0,2.0,39,0.00,,CLR,0.00,VWS V14.01,2013-07-11 12:31:00,
2013-07-11 06:36:00,65.8,40.8,29.59,ENE,67,1.0,3.0,40,0.00,,CLR,0.00,VWS V14.01,2013-07-11 12:36:00,
2013-07-11 06:41:00,66.3,40.0,29.59,ENE,67,0.0,0.0,38,0.00,,CLR,0.00,VWS V14.01,2013-07-11 12:41:00,
2013-07-11 06:46:00,66.8,41.1,29.59,ENE,67,0.0,0.0,39,0.00,,CLR,0.00,VWS V14.01,2013-07-11 12:46:00,
2013-07-11 06:51:00,67.3,42.2,29.58,ENE,72,0.0,0.0,40,0.00,,CLR,0.00,VWS V14.01,2013-07-11 12:51:00,
2013-07-11 06:56:00,67.6,43.1,29.58,ENE,72,0.0,0.0,41,0.00,,CLR,0.00,VWS V14.01,2013-07-11 12:56:00,
2013-07-11 07:02:00,67.9,44.0,29.58,ENE,72,0.0,0.0,42,0.00,,CLR,0.00,VWS V14.01,2013-07-11 13:02:00,
2013-07-11 07:07:00,67.9,45.8,29.58,ENE,72,0.0,0.0,45,0.00,,CLR,0.00,VWS V14.01,2013-07-11 13:07:00,
2013-07-11 07:12:00,67.9,46.4,29.58,ENE,72,0.0,0.0,46,0.00,,CLR,0.00,VWS V14.01,2013-07-11 13:12:00,
2013-07-11 07:17:00,67.9,47.0,29.59,ENE,72,0.0,0.0,47,0.00,,CLR,0.00,VWS V14.01,2013-07-11 13:17:00,
2013-07-11 07:23:00,67.8,46.9,29.59,ENE,72,0.0,0.0,47,0.00,,CLR,0.00,VWS V14.01,2013-07-11 13:23:00,
2013-07-11 07:28:00,67.4,45.9,29.59,ENE,72,0.0,0.0,46,0.00,,CLR,0.00,VWS V14.01,2013-07-11 13:28:00,
2013-07-11 07:33:00,67.3,44.1,29.60,ENE,72,0.0,0.0,43,0.00,,CLR,0.00,VWS V14.01,2013-07-11 13:33:00,
2013-07-11 07:38:00,67.1,45.7,29.60,ENE,72,0.0,0.0,46,0.00,,CLR,0.00,VWS V14.01,2013-07-11 13:38:00,
2013-07-11 07:43:00,66.8,45.9,29.60,ENE,72,0.0,0.0,47,0.00,,CLR,0.00,VWS V14.01,2013-07-11 13:43:00,
2013-07-11 07:49:00,66.6,45.8,29.60,ENE,72,0.0,0.0,47,0.00,,CLR,0.00,VWS V14.01,2013-07-11 13:49:00,
2013-07-11 07:54:00,66.6,46.3,29.60,ENE,72,0.0,0.0,48,0.00,,CLR,0.00,VWS V14.01,2013-07-11 13:54:00,
2013-07-11 07:59:00,66.8,47.0,29.60,ENE,72,0.0,0.0,49,0.00,,CLR,0.00,VWS V14.01,2013-07-11 13:59:00,
2013-07-11 08:05:00,66.9,47.7,29.60,ENE,72,0.0,0.0,50,0.00,,CLR,0.00,VWS V14.01,2013-07-11 14:05:00,
2013-07-11 08:10:00,67.3,47.0,29.60,NW,314,0.0,2.0,48,0.00,,CLR,0.00,VWS V14.01,2013-07-11 14:10:00,
2013-07-11 08:15:00,67.9,44.6,29.60,NNW,333,0.0,0.0,43,0.00,,CLR,0.00,VWS V14.01,2013-07-11 14:15:00,
2013-07-11 08:20:00,68.4,43.2,29.60,NNW,342,0.0,1.0,40,0.00,,CLR,0.00,VWS V14.01,2013-07-11 14:20:00,
2013-07-11 08:26:00,69.3,40.5,29.60,NW,324,0.0,0.0,35,0.00,,CLR,0.00,VWS V14.01,2013-07-11 14:26:00,
2013-07-11 08:32:00,69.9,45.2,29.59,NNW,329,0.0,3.0,41,0.00,,CLR,0.00,VWS V14.01,2013-07-11 14:32:00,
2013-07-11 08:38:00,70.3,43.5,29.59,NNW,335,0.0,1.0,38,0.00,,CLR,0.00,VWS V14.01,2013-07-11 14:38:00,
2013-07-11 08:43:00,70.6,42.4,29.59,NE,47,1.0,2.0,36,0.00,,CLR,0.00,VWS V14.01,2013-07-11 14:43:00,
2013-07-11 08:48:00,71.1,40.6,29.59,NNE,22,0.0,3.0,33,0.00,,CLR,0.00,VWS V14.01,2013-07-11 14:48:00,
2013-07-11 08:54:00,71.8,44.2,29.59,North,350,0.0,2.0,37,0.00,,CLR,0.00,VWS V14.01,2013-07-11 14:54:00,
2013-07-11 09:00:00,72.5,46.8,29.59,West,262,0.0,1.0,40,0.00,,CLR,0.00,VWS V14.01,2013-07-11 15:00:00,
2013-07-11 09:05:00,73.0,45.2,29.59,West,262,0.0,0.0,37,0.00,,CLR,0.00,VWS V14.01,2013-07-11 15:05:00,
2013-07-11 09:10:00,73.5,44.9,29.59,West,262,0.0,0.0,36,0.00,,CLR,0.00,VWS V14.01,2013-07-11 15:10:00,
2013-07-11 09:16:00,74.4,45.0,29.59,West,262,0.0,1.0,35,0.00,,CLR,0.00,VWS V14.01,2013-07-11 15:16:00,
2013-07-11 09:21:00,75.1,43.3,29.61,North,9,1.0,4.0,32,0.00,,CLR,0.00,VWS V14.01,2013-07-11 15:21:00,
2013-07-11 09:27:00,75.8,44.7,29.61,NNE,14,0.0,4.0,33,0.00,,CLR,0.00,VWS V14.01,2013-07-11 15:27:00,
2013-07-11 09:32:00,76.1,45.7,29.61,NW,315,2.0,2.0,34,0.00,,CLR,0.00,VWS V14.01,2013-07-11 15:32:00,
2013-07-11 09:37:00,76.3,42.6,29.60,North,360,0.0,3.0,30,0.00,,CLR,0.00,VWS V14.01,2013-07-11 15:37:00,
2013-07-11 09:43:00,76.5,42.8,29.60,North,5,0.0,2.0,30,0.00,,CLR,0.00,VWS V14.01,2013-07-11 15:43:00,
2013-07-11 09:48:00,76.5,44.5,29.59,East,93,0.0,2.0,32,0.00,,CLR,0.00,VWS V14.01,2013-07-11 15:48:00,
2013-07-11 09:53:00,76.5,43.7,29.59,WSW,253,0.0,5.0,31,0.00,,CLR,0.00,VWS V14.01,2013-07-11 15:53:00,
2013-07-11 09:58:00,76.7,41.2,29.59,NNE,17,0.0,0.0,28,0.00,,CLR,0.00,VWS V14.01,2013-07-11 15:58:00,
2013-07-11 10:04:00,76.7,43.8,29.59,NW,311,0.0,0.0,31,0.00,,CLR,0.00,VWS V14.01,2013-07-11 16:04:00,
2013-07-11 10:09:00,76.8,43.0,29.59,East,99,0.0,0.0,30,0.00,,CLR,0.00,VWS V14.01,2013-07-11 16:09:00,
2013-07-11 10:15:00,77.0,40.5,29.59,SW,217,0.0,0.0,27,0.00,,CLR,0.00,VWS V14.01,2013-07-11 16:15:00,
2013-07-11 10:20:00,77.2,41.6,29.61,SW,236,3.0,5.0,28,0.00,,CLR,0.00,VWS V14.01,2013-07-11 16:20:00,
2013-07-11 10:25:00,77.2,41.6,29.61,WSW,251,0.0,2.0,28,0.00,,CLR,0.00,VWS V14.01,2013-07-11 16:25:00,
2013-07-11 10:30:00,77.6,41.0,29.61,ESE,106,0.0,1.0,27,0.00,,CLR,0.00,VWS V14.01,2013-07-11 16:30:00,
2013-07-11 10:36:00,77.9,41.3,29.61,ENE,61,0.0,1.0,27,0.00,,CLR,0.00,VWS V14.01,2013-07-11 16:36:00,
2013-07-11 10:42:00,78.5,42.7,29.61,ENE,58,1.0,1.0,28,0.00,,CLR,0.00,VWS V14.01,2013-07-11 16:42:00,
2013-07-11 10:47:00,79.0,42.2,29.61,ENE,74,0.0,1.0,27,0.00,,CLR,0.00,VWS V14.01,2013-07-11 16:47:00,
2013-07-11 10:52:00,79.4,44.4,29.60,ENE,74,0.0,1.0,29,0.00,,CLR,0.00,VWS V14.01,2013-07-11 16:52:00,
2013-07-11 10:58:00,79.4,40.5,29.60,NW,306,0.0,4.0,25,0.00,,CLR,0.00,VWS V14.01,2013-07-11 16:58:00,
2013-07-11 11:03:00,79.2,39.3,29.61,NE,42,0.0,6.0,24,0.00,,CLR,0.00,VWS V14.01,2013-07-11 17:03:00,
2013-07-11 11:08:00,79.4,39.5,29.61,East,80,1.0,1.0,24,0.00,,CLR,0.00,VWS V14.01,2013-07-11 17:08:00,
2013-07-11 11:13:00,79.0,41.2,29.61,SW,225,1.0,3.0,26,0.00,,CLR,0.00,VWS V14.01,2013-07-11 17:13:00,
2013-07-11 11:18:00,78.6,38.8,29.60,SE,137,0.0,1.0,24,0.00,,CLR,0.00,VWS V14.01,2013-07-11 17:18:00,
2013-07-11 11:23:00,78.5,39.8,29.60,WSW,254,0.0,3.0,25,0.00,,CLR,0.00,VWS V14.01,2013-07-11 17:23:00,
2013-07-11 11:28:00,78.3,39.6,29.60,North,5,0.0,0.0,25,0.00,,CLR,0.00,VWS V14.01,2013-07-11 17:28:00,
2013-07-11 11:34:00,78.3,40.6,29.60,North,5,0.0,0.0,26,0.00,,CLR,0.00,VWS V14.01,2013-07-11 17:34:00,
2013-07-11 11:39:00,78.5,42.7,29.60,ENE,74,0.0,1.0,28,0.00,,CLR,0.00,VWS V14.01,2013-07-11 17:39:00,
2013-07-11 11:45:00,79.2,43.3,29.60,ENE,59,2.0,2.0,28,0.00,,CLR,0.00,VWS V14.01,2013-07-11 17:45:00,
2013-07-11 11:50:00,80.1,43.1,29.58,West,266,2.0,5.0,27,0.00,,CLR,0.00,VWS V14.01,2013-07-11 17:50:00,
2013-07-11 11:55:00,80.3,39.2,29.58,WSW,238,0.0,2.0,23,0.00,,CLR,0.00,VWS V14.01,2013-07-11 17:55:00,
2013-07-11 12:01:00,80.7,41.7,29.58,ESE,104,1.0,1.0,25,0.00,,CLR,0.00,VWS V14.01,2013-07-11 18:01:00,
2013-07-11 12:06:00,81.2,39.9,29.58,North,5,4.0,5.0,23,0.00,,CLR,0.00,VWS V14.01,2013-07-11 18:06:00,
2013-07-11 12:11:00,81.8,40.4,29.58,ENE,68,2.0,5.0,23,0.00,,CLR,0.00,VWS V14.01,2013-07-11 18:11:00,
2013-07-11 12:16:00,82.2,38.4,29.58,ENE,77,2.0,6.0,21,0.00,,CLR,0.00,VWS V14.01,2013-07-11 18:16:00,
2013-07-11 12:21:00,82.4,39.8,29.60,ENE,65,0.0,4.0,22,0.00,,CLR,0.00,VWS V14.01,2013-07-11 18:21:00,
2013-07-11 12:26:00,82.8,36.4,29.60,NW,310,1.0,5.0,19,0.00,,CLR,0.00,VWS V14.01,2013-07-11 18:26:00,
2013-07-11 12:31:00,83.2,36.7,29.60,ENE,69,0.0,7.0,19,0.00,,CLR,0.00,VWS V14.01,2013-07-11 18:31:00,
2013-07-11 12:37:00,83.6,37.0,29.58,East,79,1.0,4.0,19,0.00,,CLR,0.00,VWS V14.01,2013-07-11 18:37:00,
2013-07-11 12:42:00,84.1,37.4,29.58,NNE,28,0.0,7.0,19,0.00,,CLR,0.00,VWS V14.01,2013-07-11 18:42:00,
2013-07-11 12:48:00,84.3,36.2,29.59,ENE,74,2.0,6.0,18,0.00,,CLR,0.00,VWS V14.01,2013-07-11 18:48:00,
2013-07-11 12:53:00,84.5,39.1,29.59,NNW,347,3.0,7.0,20,0.00,,CLR,0.00,VWS V14.01,2013-07-11 18:53:00,
2013-07-11 12:58:00,84.5,37.8,29.59,North,355,1.0,5.0,19,0.00,,CLR,0.00,VWS V14.01,2013-07-11 18:58:00,
2013-07-11 13:03:00,84.1,36.1,29.58,North,360,4.0,5.0,18,0.00,,CLR,0.00,VWS V14.01,2013-07-11 19:03:00,
2013-07-11 13:08:00,84.1,37.4,29.58,NE,36,0.0,2.0,19,0.00,,CLR,0.00,VWS V14.01,2013-07-11 19:08:00,
2013-07-11 13:13:00,84.1,34.6,29.58,NE,34,5.0,12.0,17,0.00,,CLR,0.00,VWS V14.01,2013-07-11 19:13:00,
2013-07-11 13:25:00,84.1,34.6,29.56,North,0,3.0,10.0,17,0.00,,CLR,0.00,VWS V14.01,2013-07-11 19:25:00,
2013-07-11 13:36:00,84.1,37.4,29.56,NNW,331,2.0,5.0,19,0.00,,CLR,0.00,VWS V14.01,2013-07-11 19:36:00,
2013-07-11 13:41:00,84.3,33.3,29.56,WSW,242,0.0,6.0,16,0.00,,CLR,0.00,VWS V14.01,2013-07-11 19:41:00,
2013-07-11 13:47:00,84.5,36.4,29.56,NE,46,0.0,6.0,18,0.00,,CLR,0.00,VWS V14.01,2013-07-11 19:47:00,
2013-07-11 13:52:00,84.9,35.3,29.56,ENE,76,0.0,6.0,17,0.00,,CLR,0.00,VWS V14.01,2013-07-11 19:52:00,
2013-07-11 13:58:00,85.5,34.2,29.56,NNE,20,0.0,8.0,16,0.00,,CLR,0.00,VWS V14.01,2013-07-11 19:58:00,
2013-07-11 14:03:00,85.9,34.5,29.54,NW,315,5.0,9.0,16,0.00,,CLR,0.00,VWS V14.01,2013-07-11 20:03:00,
2013-07-11 14:08:00,86.3,36.4,29.54,NW,324,2.0,10.0,17,0.00,,CLR,0.00,VWS V14.01,2013-07-11 20:08:00,
2013-07-11 14:13:00,86.3,34.9,29.54,NW,312,0.0,3.0,16,0.00,,CLR,0.00,VWS V14.01,2013-07-11 20:13:00,
2013-07-11 14:19:00,86.5,35.0,29.56,North,355,2.0,11.0,16,0.00,,CLR,0.00,VWS V14.01,2013-07-11 20:19:00,
2013-07-11 14:25:00,87.6,35.9,29.56,ENE,63,2.0,5.0,16,0.00,,CLR,0.00,VWS V14.01,2013-07-11 20:25:00,
2013-07-11 14:31:00,88.2,34.8,29.56,South,171,3.0,9.0,15,0.00,,CLR,0.00,VWS V14.01,2013-07-11 20:31:00,
2013-07-11 14:37:00,88.2,36.4,29.55,NW,325,9.0,9.0,16,0.00,,CLR,0.00,VWS V14.01,2013-07-11 20:37:00,
2013-07-11 14:42:00,87.6,34.3,29.55,ENE,74,4.0,7.0,15,0.00,,CLR,0.00,VWS V14.01,2013-07-11 20:42:00,
2013-07-11 14:47:00,87.2,37.1,29.55,NE,55,3.0,11.0,17,0.00,,CLR,0.00,VWS V14.01,2013-07-11 20:47:00,
2013-07-11 14:52:00,87.4,37.3,29.55,East,87,8.0,10.0,17,0.00,,CLR,0.00,VWS V14.01,2013-07-11 20:52:00,
2013-07-11 14:58:00,87.6,38.9,29.55,NNE,22,2.0,5.0,18,0.00,,CLR,0.00,VWS V14.01,2013-07-11 20:58:00,
2013-07-11 15:03:00,87.6,35.9,29.54,NE,46,2.0,11.0,16,0.00,,CLR,0.00,VWS V14.01,2013-07-11 21:03:00,
2013-07-11 15:08:00,87.4,35.8,29.54,East,88,1.0,6.0,16,0.00,,CLR,0.00,VWS V14.01,2013-07-11 21:08:00,
2013-07-11 15:13:00,87.2,35.6,29.54,ESE,102,3.0,11.0,16,0.00,,CLR,0.00,VWS V14.01,2013-07-11 21:13:00,
2013-07-11 15:18:00,86.3,34.9,29.55,NNE,24,0.0,4.0,16,0.00,,CLR,0.00,VWS V14.01,2013-07-11 21:18:00,
2013-07-11 15:23:00,85.7,35.9,29.55,NW,325,4.0,4.0,17,0.00,,CLR,0.00,VWS V14.01,2013-07-11 21:23:00,
2013-07-11 15:28:00,85.3,35.6,29.55,NE,48,4.0,4.0,17,0.00,,CLR,0.00,VWS V14.01,2013-07-11 21:28:00,
2013-07-11 15:34:00,84.7,36.5,29.56,NE,47,2.0,5.0,18,0.00,,CLR,0.00,VWS V14.01,2013-07-11 21:34:00,
2013-07-11 15:39:00,84.3,36.2,29.56,West,259,1.0,8.0,18,0.00,,CLR,0.00,VWS V14.01,2013-07-11 21:39:00,
2013-07-11 15:44:00,84.0,36.0,29.56,NE,55,2.0,3.0,18,0.00,,CLR,0.00,VWS V14.01,2013-07-11 21:44:00,
2013-07-11 15:50:00,83.6,35.7,29.56,ENE,59,2.0,3.0,18,0.00,,CLR,0.00,VWS V14.01,2013-07-11 21:50:00,
2013-07-11 15:56:00,83.2,35.3,29.56,ENE,58,0.0,3.0,18,0.00,,CLR,0.00,VWS V14.01,2013-07-11 21:56:00,
2013-07-11 16:01:00,82.8,38.9,29.56,NNW,329,0.0,0.0,21,0.00,,CLR,0.00,VWS V14.01,2013-07-11 22:01:00,
2013-07-11 16:06:00,82.4,36.0,29.57,ENE,59,1.0,5.0,19,0.00,,CLR,0.00,VWS V14.01,2013-07-11 22:06:00,
2013-07-11 16:12:00,82.2,35.9,29.57,ENE,71,2.0,6.0,19,0.00,,CLR,0.00,VWS V14.01,2013-07-11 22:12:00,
2013-07-11 16:17:00,82.0,34.4,29.57,NE,40,3.0,8.0,18,0.00,,CLR,0.00,VWS V14.01,2013-07-11 22:17:00,
2013-07-11 16:23:00,81.8,36.8,29.57,NE,54,2.0,10.0,20,0.00,,CLR,0.00,VWS V14.01,2013-07-11 22:23:00,
2013-07-11 16:28:00,81.8,38.1,29.57,NNE,20,1.0,4.0,21,0.00,,CLR,0.00,VWS V14.01,2013-07-11 22:28:00,
2013-07-11 16:33:00,82.0,39.4,29.57,NNE,13,2.0,6.0,22,0.00,,CLR,0.00,VWS V14.01,2013-07-11 22:33:00,
2013-07-11 16:39:00,82.2,38.4,29.57,NW,309,9.0,9.0,21,0.00,,CLR,0.00,VWS V14.01,2013-07-11 22:39:00,
2013-07-11 16:44:00,81.8,39.3,29.57,North,351,2.0,2.0,22,0.00,,CLR,0.00,VWS V14.01,2013-07-11 22:44:00,
2013-07-11 16:50:00,81.8,39.3,29.57,West,277,0.0,5.0,22,0.00,,CLR,0.00,VWS V14.01,2013-07-11 22:50:00,
2013-07-11 16:55:00,81.6,39.1,29.57,NE,37,0.0,1.0,22,0.00,,CLR,0.00,VWS V14.01,2013-07-11 22:55:00,
2013-07-11 17:00:00,81.6,37.9,29.57,NE,50,0.0,1.0,21,0.00,,CLR,0.00,VWS V14.01,2013-07-11 23:00:00,
2013-07-11 17:06:00,82.0,39.4,29.57,NNE,14,0.0,5.0,22,0.00,,CLR,0.00,VWS V14.01,2013-07-11 23:06:00,
2013-07-11 17:11:00,82.2,37.2,29.57,NE,40,0.0,4.0,20,0.00,,CLR,0.00,VWS V14.01,2013-07-11 23:11:00,
2013-07-11 17:16:00,82.4,38.6,29.57,NNW,345,3.0,3.0,21,0.00,,CLR,0.00,VWS V14.01,2013-07-11 23:16:00,
2013-07-11 17:22:00,82.6,37.5,29.55,North,355,0.0,4.0,20,0.00,,CLR,0.00,VWS V14.01,2013-07-11 23:22:00,
2013-07-11 17:27:00,82.8,37.7,29.55,NNW,330,4.0,7.0,20,0.00,,CLR,0.00,VWS V14.01,2013-07-11 23:27:00,
2013-07-11 17:32:00,82.8,38.9,29.55,NE,38,0.0,5.0,21,0.00,,CLR,0.00,VWS V14.01,2013-07-11 23:32:00,
2013-07-11 17:37:00,83.2,38.0,29.55,North,355,2.0,5.0,20,0.00,,CLR,0.00,VWS V14.01,2013-07-11 23:37:00,
2013-07-11 17:42:00,83.2,39.2,29.55,East,83,0.0,10.0,21,0.00,,CLR,0.00,VWS V14.01,2013-07-11 23:42:00,
2013-07-11 17:47:00,82.6,38.8,29.55,NNE,22,1.0,11.0,21,0.00,,CLR,0.00,VWS V14.01,2013-07-11 23:47:00,
2013-07-11 17:53:00,82.2,35.9,29.55,East,88,1.0,4.0,19,0.00,,CLR,0.00,VWS V14.01,2013-07-11 23:53:00,
2013-07-11 17:58:00,81.8,36.8,29.55,ENE,65,3.0,4.0,20,0.00,,CLR,0.00,VWS V14.01,2013-07-11 23:58:00,
2013-07-11 18:03:00,81.2,37.6,29.57,NE,53,0.0,7.0,21,0.00,,CLR,0.00,VWS V14.01,2013-07-12 00:03:00,
2013-07-11 18:09:00,80.7,38.4,29.57,NE,42,0.0,1.0,22,0.00,,CLR,0.00,VWS V14.01,2013-07-12 00:09:00,
2013-07-11 18:14:00,80.3,38.0,29.57,North,355,1.0,2.0,22,0.00,,CLR,0.00,VWS V14.01,2013-07-12 00:14:00,
2013-07-11 18:20:00,79.9,37.7,29.56,NE,46,1.0,4.0,22,0.00,,CLR,0.00,VWS V14.01,2013-07-12 00:20:00,
2013-07-11 18:25:00,79.8,38.8,29.56,NE,44,4.0,4.0,23,0.00,,CLR,0.00,VWS V14.01,2013-07-12 00:25:00,
2013-07-11 18:30:00,79.4,38.4,29.56,ESE,102,0.0,3.0,23,0.00,,CLR,0.00,VWS V14.01,2013-07-12 00:30:00,
2013-07-11 18:36:00,79.2,40.4,29.57,East,83,0.0,1.0,25,0.00,,CLR,0.00,VWS V14.01,2013-07-12 00:36:00,
2013-07-11 18:41:00,78.5,39.8,29.57,ENE,60,0.0,11.0,25,0.00,,CLR,0.00,VWS V14.01,2013-07-12 00:41:00,
2013-07-11 18:46:00,77.6,41.0,29.57,South,189,0.0,13.0,27,0.00,,CLR,0.00,VWS V14.01,2013-07-12 00:46:00,
2013-07-11 18:51:00,75.8,40.4,29.59,ENE,73,0.0,6.0,28,0.00,,CLR,0.00,VWS V14.01,2013-07-12 00:51:00,
2013-07-11 18:56:00,74.9,41.4,29.59,NNE,15,1.0,7.0,30,0.00,,CLR,0.00,VWS V14.01,2013-07-12 00:56:00,
2013-07-11 19:01:00,74.0,41.5,29.59,NNW,336,0.0,4.0,31,0.00,,CLR,0.00,VWS V14.01,2013-07-12 01:01:00,
2013-07-11 19:07:00,73.5,42.7,29.60,NE,49,0.0,3.0,33,0.00,,CLR,0.00,VWS V14.01,2013-07-12 01:07:00,
2013-07-11 19:12:00,73.2,41.6,29.60,ENE,58,0.0,4.0,32,0.00,,CLR,0.00,VWS V14.01,2013-07-12 01:12:00,
2013-07-11 19:17:00,72.8,41.3,29.60,ENE,58,0.0,0.0,32,0.00,,CLR,0.00,VWS V14.01,2013-07-12 01:17:00,
2013-07-11 19:23:00,72.8,42.8,29.62,ENE,58,0.0,1.0,34,0.00,,CLR,0.00,VWS V14.01,2013-07-12 01:23:00,
2013-07-11 19:28:00,72.5,43.3,29.62,NNE,28,0.0,2.0,35,0.00,,CLR,0.00,VWS V14.01,2013-07-12 01:28:00,
2013-07-11 19:33:00,72.5,41.8,29.63,NNE,28,0.0,0.0,33,0.00,,CLR,0.00,VWS V14.01,2013-07-12 01:33:00,
2013-07-11 19:38:00,72.1,43.0,29.63,NNE,28,0.0,0.0,35,0.00,,CLR,0.00,VWS V14.01,2013-07-12 01:38:00,
2013-07-11 19:43:00,71.5,41.7,29.63,WSW,247,1.0,3.0,34,0.00,,CLR,0.00,VWS V14.01,2013-07-12 01:43:00,
2013-07-11 19:48:00,70.8,41.8,29.65,WSW,257,2.0,5.0,35,0.00,,CLR,0.00,VWS V14.01,2013-07-12 01:48:00,
2013-07-11 19:54:00,70.1,41.9,29.65,WSW,246,0.0,0.0,36,0.00,,CLR,0.00,VWS V14.01,2013-07-12 01:54:00,
2013-07-11 19:59:00,69.9,42.5,29.65,WSW,248,0.0,0.0,37,0.00,,CLR,0.00,VWS V14.01,2013-07-12 01:59:00,
2013-07-11 20:05:00,69.4,42.7,29.67,WSW,241,0.0,3.0,38,0.00,,CLR,0.00,VWS V14.01,2013-07-12 02:05:00,
2013-07-11 20:10:00,69.3,43.3,29.67,SW,231,0.0,0.0,39,0.00,,CLR,0.00,VWS V14.01,2013-07-12 02:10:00,
2013-07-11 20:17:00,68.8,42.9,29.67,SW,221,0.0,3.0,39,0.00,,CLR,0.00,VWS V14.01,2013-07-12 02:17:00,
2013-07-11 20:22:00,68.8,42.9,29.64,SW,229,0.0,0.0,39,0.00,,CLR,0.00,VWS V14.01,2013-07-12 02:22:00,
2013-07-11 20:28:00,68.6,43.3,29.64,SW,236,0.0,3.0,40,0.00,,CLR,0.00,VWS V14.01,2013-07-12 02:28:00,
2013-07-11 20:33:00,68.4,42.5,29.65,SSW,198,1.0,3.0,39,0.00,,CLR,0.00,VWS V14.01,2013-07-12 02:33:00,
2013-07-11 20:38:00,68.3,43.1,29.65,SW,236,0.0,4.0,40,0.00,,CLR,0.00,VWS V14.01,2013-07-12 02:38:00,
2013-07-11 20:43:00,68.3,43.7,29.65,SW,233,0.0,1.0,41,0.00,,CLR,0.00,VWS V14.01,2013-07-12 02:43:00,
2013-07-11 20:48:00,68.1,42.9,29.67,SW,233,0.0,0.0,40,0.00,,CLR,0.00,VWS V14.01,2013-07-12 02:48:00,
2013-07-11 20:54:00,68.1,42.9,29.67,SW,235,0.0,0.0,40,0.00,,CLR,0.00,VWS V14.01,2013-07-12 02:54:00,
2013-07-11 20:59:00,67.9,43.4,29.67,East,92,0.0,0.0,41,0.00,,CLR,0.00,VWS V14.01,2013-07-12 02:59:00,
2013-07-11 21:05:00,67.9,42.1,29.69,SE,141,0.0,5.0,39,0.00,,CLR,0.00,VWS V14.01,2013-07-12 03:05:00,
2013-07-11 21:10:00,67.9,44.6,29.69,ENE,63,0.0,3.0,43,0.00,,CLR,0.00,VWS V14.01,2013-07-12 03:10:00,
2013-07-11 21:15:00,67.6,43.7,29.69,ENE,64,1.0,4.0,42,0.00,,CLR,0.00,VWS V14.01,2013-07-12 03:15:00,
2013-07-11 21:20:00,67.1,43.9,29.69,NNE,28,0.0,0.0,43,0.00,,CLR,0.00,VWS V14.01,2013-07-12 03:20:00,
2013-07-11 21:25:00,66.8,43.6,29.69,NNE,20,0.0,0.0,43,0.00,,CLR,0.00,VWS V14.01,2013-07-12 03:25:00,
2013-07-11 21:31:00,66.4,43.2,29.69,NNE,20,0.0,0.0,43,0.00,,CLR,0.00,VWS V14.01,2013-07-12 03:31:00,
2013-07-11 21:36:00,66.0,43.5,29.72,WNW,302,0.0,1.0,44,0.00,,CLR,0.00,VWS V14.01,2013-07-12 03:36:00,
2013-07-11 21:42:00,65.6,43.1,29.72,WNW,302,0.0,1.0,44,0.00,,CLR,0.00,VWS V14.01,2013-07-12 03:42:00,
2013-07-11 21:48:00,65.5,43.6,29.73,WNW,302,0.0,0.0,45,0.00,,CLR,0.00,VWS V14.01,2013-07-12 03:48:00,
2013-07-11 21:53:00,65.2,44.5,29.73,NNW,346,0.0,1.0,47,0.00,,CLR,0.00,VWS V14.01,2013-07-12 03:53:00,
2013-07-11 21:58:00,64.8,44.1,29.73,ENE,62,0.0,4.0,47,0.00,,CLR,0.00,VWS V14.01,2013-07-12 03:58:00,
2013-07-11 22:01:00,64.7,43.5,29.73,ENE,61,0.0,1.0,46,0.00,,CLR,0.00,VWS V14.01,2013-07-12 04:01:00,
2013-07-11 22:02:00,64.5,43.3,29.73,NNE,19,0.0,1.0,46,0.00,,CLR,0.00,VWS V14.01,2013-07-12 04:02:00,
2013-07-11 22:03:00,64.5,43.8,29.73,NNE,19,0.0,1.0,47,0.00,,CLR,0.00,VWS V14.01,2013-07-12 04:03:00,
2013-07-11 22:08:00,64.2,43.6,29.73,NNW,347,0.0,2.0,47,0.00,,CLR,0.00,VWS V14.01,2013-07-12 04:08:00,
2013-07-11 22:13:00,63.9,43.8,29.73,North,9,0.0,0.0,48,0.00,,CLR,0.00,VWS V14.01,2013-07-12 04:13:00,
2013-07-11 22:18:00,63.5,43.5,29.72,NE,53,0.0,0.0,48,0.00,,CLR,0.00,VWS V14.01,2013-07-12 04:18:00,
2013-07-11 22:24:00,63.4,43.9,29.72,NE,50,0.0,0.0,49,0.00,,CLR,0.00,VWS V14.01,2013-07-12 04:24:00,
2013-07-11 22:29:00,63.1,44.2,29.72,NE,51,0.0,0.0,50,0.00,,CLR,0.00,VWS V14.01,2013-07-12 04:29:00,
2013-07-11 22:34:00,62.9,45.5,29.72,NE,51,0.0,0.0,53,0.00,,CLR,0.00,VWS V14.01,2013-07-12 04:34:00,
2013-07-11 22:39:00,62.7,46.8,29.72,NE,43,0.0,2.0,56,0.00,,CLR,0.00,VWS V14.01,2013-07-12 04:39:00,
2013-07-11 22:44:00,62.4,47.0,29.72,NW,311,0.0,0.0,57,0.00,,CLR,0.00,VWS V14.01,2013-07-12 04:44:00,
2013-07-11 22:49:00,62.0,47.5,29.73,NW,312,0.0,0.0,59,0.00,,CLR,0.00,VWS V14.01,2013-07-12 04:49:00,
2013-07-11 22:54:00,61.3,48.2,29.73,ESE,103,0.0,0.0,62,0.00,,CLR,0.00,VWS V14.01,2013-07-12 04:54:00,
2013-07-11 22:59:00,60.4,49.4,29.73,ESE,103,0.0,0.0,67,0.00,,CLR,0.00,VWS V14.01,2013-07-12 04:59:00,
2013-07-11 23:04:00,59.5,50.1,29.72,SW,232,0.0,0.0,71,0.01,,CLR,0.01,VWS V14.01,2013-07-12 05:04:00,
2013-07-11 23:10:00,58.7,50.8,29.72,SE,146,0.0,0.0,75,0.01,,CLR,0.01,VWS V14.01,2013-07-12 05:10:00,
2013-07-11 23:15:00,57.8,49.9,29.72,SE,146,0.0,0.0,75,0.01,,CLR,0.01,VWS V14.01,2013-07-12 05:15:00,
2013-07-11 23:20:00,57.0,49.5,29.70,SE,146,0.0,0.0,76,0.01,,CLR,0.01,VWS V14.01,2013-07-12 05:20:00,
2013-07-11 23:25:00,56.5,49.4,29.70,SE,146,0.0,0.0,77,0.01,,CLR,0.01,VWS V14.01,2013-07-12 05:25:00,
2013-07-11 23:30:00,56.2,49.4,29.70,SE,146,0.0,0.0,78,0.01,,CLR,0.01,VWS V14.01,2013-07-12 05:30:00,
2013-07-11 23:35:00,55.6,48.9,29.70,SE,146,0.0,0.0,78,0.01,,CLR,0.01,VWS V14.01,2013-07-12 05:35:00,
2013-07-11 23:40:00,55.4,48.0,29.70,SE,146,0.0,0.0,76,0.01,,CLR,0.01,VWS V14.01,2013-07-12 05:40:00,
2013-07-11 23:45:00,55.4,46.9,29.70,SE,146,0.0,0.0,73,0.01,,CLR,0.01,VWS V14.01,2013-07-12 05:45:00,
2013-07-11 23:50:00,55.6,46.7,29.69,SE,146,0.0,0.0,72,0.01,,CLR,0.01,VWS V14.01,2013-07-12 05:50:00,
2013-07-11 23:55:00,55.7,46.5,29.69,SE,146,0.0,0.0,71,0.01,,CLR,0.01,VWS V14.01,2013-07-12 05:55:00,